Location: Newark
(49.1000°N, 0.4667°W)
Time: 10:45:55
(UTC+00:00)

BEESAT 3 - Pass Details

Date: 06 July 2020
Orbit: 482 x 522 km, 64.9° (Epoch: 10 August)

Event Time Altitude Azimuth Distance (km) Brightness Sun altitude
Rises 03:07:38 0° 325° (NW) 2,659 ? -7.7°
Reaches altitude 10° 03:10:50 10° 353° (N) 1,764 ? -7.4°
Maximum altitude 03:12:51 14° 24° (NNE) 1,547 ? -7.2°
Drops below altitude 10° 03:14:51 10° 55° (NE) 1,752 ? -6.9°
Sets 03:18:01 0° 83° (E) 2,628 ? -6.6°
